DELTA 1 DEB, 40757

Orbit data source: Space-Track

DELTA 1 DEB, 40757 is space debris in SSO originally from a launch on Thu, 29 Jul 1976 UTC launched from the Air Force Western Test Range (AFWTR). Debris objects in space refer to the collection of defunct objects orbiting the Earth. Examples of debris include non-operational satellites, rocket bodies, and fragments generated from explosions, collisions, or faulty payload assembly.

Loading next visibility...
Identifier
40757, 1976-077GA
Orbit
SSO
Country
Flag of USUS
Related business
Manufacturer
Unknown
Mission
Spacecraft
Bus & Motor
Unknown
Mass
Unknown
Launch date (UTC)
1976-07-29 (49 years ago)
Launch vehicle
Unknown
Launch site
Air Force Western Test Range (AFWTR)
Object type
Payload
Rocket body
Debris
Shape & HBR
Unknown shape, 0.1 m
Radar Cross Section
Small (<0.1 m²)

Expand to show TLE details & history
Last TLE update: 4 weeks ago

TLE from 4 weeks ago
0 DELTA 1 DEB
1 40757U 76077GA  25264.19987989  .00000048  00000-0  58063-3 0  9996
2 40757 101.8721 232.1299 0004691 316.1469  43.9231 12.54786028543066
Epoch: 2025-09-21T04:47Z
TLE epoch observation values (Epoch: 2025-09-21T04:47:49.622Z)
Latitude
0.00002°
Longitude
159.8513°
Altitude
1,444.472 km
Speed
7.141 km/s
True Right ascension
15h 28m 31s
True Declination
0° 00' 00"
Sunlit
Object was in daylight at epoch
Visualization orbit readout
Latitude
Unknown
Longitude
Unknown
Altitude
Unknown
Speed
Unknown
Apparent Right ascension
Unknown
Apparent Declination
Unknown
Sunlit
N/A
Visualization observer readout
Local Sidereal Time
12:32:41
Azimuth
Unknown
Elevation
Unknown
Doppler factor
Unknown
Orbital elements
Apogee altitude
1,445.756 km
Perigee altitude
1,438.419 km
Semi-major axis
7,820.225 km
Eccentricity
0.00047
Inclination
101.8721°
RAAN
232.1299°
Arg. of periapsis
316.1469°
True anomaly
43.96041°
Mean anomaly
43.9231°
Eccentric anomaly
43.94175°
Mean motion
3.13844 °/min
Orbital period
114.71 mins
BSTAR
0.00058063
Loading maneuver chart data...
Computing Atmospheric mass density...
Loading historical data...
Loading historical data...
Loading historical data...
Loading historical data...
Loading historical data...
Loading historical data...
Loading historical data...

Documentation

Showing up to 5 results
|